This demonstration page uses our WeatherBlox Daily Observations layout. Learn more.

Left ArrowRight Arrow

36.17497, -115.13722

Hourly Observations for November 25, 2020

Temp ( °F °C ) Dew Point ( °F °C ) Humidity (%) Winds ( mph kmh ) Pressure ( in mb ) Visibility ( mi km ) Precip ( " mm )
12:53 am 00:53 Clear 42 5.6 18 -7.8 38 38 WNW 5 7 30.12 1020 10 16 0.00 0.00
1:53 am 01:53 Clear 41 5 18 -7.8 39 39 NNW 6 9 30.12 1020 10 16 0.00 0.00
2:53 am 02:53 Clear 41 5 18 -7.8 39 39 NW 6 9 30.12 1020 10 16 0.00 0.00
3:53 am 03:53 Clear 40 4.4 20 -6.7 45 45 NNW 5 7 30.12 1020 10 16 0.00 0.00
4:53 am 04:53 Clear 40 4.4 18 -7.8 41 41 NW 7 11 30.13 1020 10 16 0.00 0.00
5:53 am 05:53 Clear 39 3.9 20 -6.7 46 46 WNW 5 7 30.14 1021 10 16 0.00 0.00
6:53 am 06:53 Sunny 39 3.9 20 -6.7 46 46 Calm 30.16 1022 10 16 0.00 0.00
7:53 am 07:53 Sunny 45 7.2 20 -6.7 37 37 Calm 30.16 1021 10 16 0.00 0.00
8:53 am 08:53 Sunny 49 9.4 20 -6.7 32 32 SE 3 6 30.15 1021 10 16 0.00 0.00
9:53 am 09:53 Sunny 52 11.1 20 -6.7 28 28 ESE 5 7 30.14 1021 10 16 0.00 0.00
10:53 am 10:53 Sunny 56 13.3 21 -6.1 26 26 VRB 5 7 30.11 1020 10 16 0.00 0.00
11:53 am 11:53 Sunny 57 13.9 21 -6.1 25 25 SE 3 6 30.08 1019 10 16 0.00 0.00
12:53 pm 12:53 Sunny 59 15 20 -6.7 22 22 E 3 6 30.05 1018 10 16 0.00 0.00
1:53 pm 13:53 Sunny 61 16.1 20 -6.7 20 20 NE 6 9 30.03 1017 10 16 0.00 0.00
2:53 pm 14:53 Sunny 61 16.1 20 -6.7 20 20 E 5 7 30.01 1016 10 16 0.00 0.00
4:53 pm 16:53 Clear 58 14.4 20 -6.7 23 23 ENE 3 6 29.98 1015 10 16 0.00 0.00
5:53 pm 17:53 Clear 56 13.3 21 -6.1 26 26 WNW 3 6 29.99 1016 10 16 0.00 0.00
6:53 pm 18:53 Clear 52 11.1 23 -5 32 32 Calm 29.99 1016 10 16 0.00 0.00
7:53 pm 19:53 Clear 50 10 22 -5.6 33 33 NW 6 9 29.99 1016 10 16 0.00 0.00
8:53 pm 20:53 Clear 48 8.9 23 -5 37 37 NNW 8 13 30.00 1016 10 16 0.00 0.00
9:53 pm 21:53 Clear 47 8.3 21 -6.1 36 36 NNW 10 17 30.01 1016 10 16 0.00 0.00
10:53 pm 22:53 Clear 50 10 19 -7.2 29 29 NNW 12 19 30.02 1017 10 16 0.00 0.00
11:53 pm 23:53 Clear 50 10 18 -7.8 28 28 NNW 10 17 30.02 1017 10 16 0.00 0.00

Powered by AerisWeather